Meath Environmental Platform

Observations for Trim Market St

Time AQI Temp °C Hum % Pres Pa CO μg/m³ H₂S μg/m³ NO μg/m³ NO₂ μg/m³ O₃ μg/m³ SO₂ μg/m³ PM1 μg/m³ PM2.5 μg/m³ PM10 μg/m³
Saturday 22 August 2026
15:57 2 22.7 41 65,489 0.18 0 1.42 19.93 77.79 0 2.85 7.59 9.93
15:54 2 22.7 41 65,466 0.66 0 1.58 19.04 63.15 0 2.85 9.71 12.33
15:52 2 22.8 41 65,491 0 0 1.74 15.15 73.22 0 1.43 6.55 7.53
15:46 2 22.9 40 65,493 0 0 1.17 23.87 61.71 0 2.85 6.56 9.13
15:44 2 22.9 40 65,481 0 0 1.09 13.6 69.47 0 3.56 7.62 9.13
15:43 2 22.9 40 65,487 0.01 0 1.16 14.89 68.29 0 2.85 8.67 10.74
15:41 2 22.9 40 65,515 0 0 1.21 10.16 74.98 0 2.85 7.63 10.74
15:40 2 23 40 65,531 0 0 1.29 13.41 72.22 0 2.14 8.16 9.94
15:39 2 23 40 65,523 0 0 1.42 9.15 91.23 0 2.14 7.11 9.94
15:38 2 23 40 65,513 0 0 1.51 11.32 71.7 0 2.85 10.8 18.78
15:37 2 23 40 65,501 0 0 1.49 9.01 69.21 0 2.85 6.57 9.13
15:36 2 23 40 65,485 0 0 1.63 12.49 68.22 0 2.14 6.58 7.53
15:34 2 23 40 65,493 0 0 1.55 25.2 64.46 0 2.85 6.58 8.33
15:31 2 23.1 40 65,517 0 0 1.68 9.42 70.42 0 2.85 7.12 9.14
15:30 2 23.1 40 65,505 0 0 1.68 8.95 70.41 0 2.85 7.12 8.33
15:29 2 23.1 40 65,513 0 0 1.72 14.84 67.25 0 3.56 7.12 9.94
15:21 2 23.4 39 65,590 0.29 0 1.7 53.22 49.91 0 2.14 5.56 6.72
15:16 2 23.6 39 65,584 0 0 1.21 18.63 71.82 0 2.85 6.62 7.53
15:15 2 23.6 39 65,586 0 0 1.3 8.95 69.42 0 2.14 6.1 8.34
15:14 2 23.6 39 65,584 0 0 1.25 12.51 68.97 0 2.85 7.69 9.15